BAW9173 EGFF-EGLL

Flight info

Callsign BAW9173
Flight time 0h 32m
Altitude 13000
Route BCN P4 HAWFA L607 YORQI N21 CAWZE P2 SIRIC
Aircraft B78X/H-SDE1E2E3FGHIJ2J3J4J5M1RWXY/LB1D1

Departure

Time 2026-05-05 13:31
Airport Cardiff International Airport (EGFF)

Arrival

Time 2026-05-05 14:03
Airport London Heathrow Airport (EGLL)
Time Latitude Longitude Altitude Speed Heading
2026-05-05 12:19 51.39916 -3.34313 232 ft 0 kts 296°
2026-05-05 13:17 51.39912 -3.34303 234 ft 2 kts 287°
2026-05-05 13:18 51.39911 -3.34279 231 ft 2 kts 261°
2026-05-05 13:18 51.39913 -3.34256 233 ft 2 kts 241°
2026-05-05 13:18 51.39920 -3.34234 232 ft 0 kts 202°
2026-05-05 13:22 51.39902 -3.34248 235 ft 10 kts 206°
2026-05-05 13:22 51.39845 -3.34267 231 ft 5 kts 163°
2026-05-05 13:22 51.39830 -3.34247 232 ft 5 kts 140°
2026-05-05 13:23 51.39784 -3.34127 232 ft 18 kts 116°
2026-05-05 13:23 51.39721 -3.33928 227 ft 22 kts 117°
2026-05-05 13:23 51.39645 -3.33696 224 ft 25 kts 118°
2026-05-05 13:23 51.39560 -3.33445 226 ft 26 kts 119°
2026-05-05 13:24 51.39480 -3.33171 228 ft 28 kts 115°
2026-05-05 13:24 51.39353 -3.32928 226 ft 29 kts 135°
2026-05-05 13:24 51.39279 -3.32824 227 ft 0 kts 150°
2026-05-05 13:29 51.39276 -3.32821 227 ft 0 kts 150°
2026-05-05 13:29 51.39274 -3.32821 230 ft 1 kts 158°
2026-05-05 13:29 51.39260 -3.32817 229 ft 6 kts 171°
2026-05-05 13:30 51.39220 -3.32839 227 ft 2 kts 228°
2026-05-05 13:30 51.39221 -3.32927 225 ft 12 kts 294°
2026-05-05 13:30 51.39276 -3.33110 229 ft 44 kts 296°
2026-05-05 13:30 51.39589 -3.34101 236 ft 153 kts 296°
2026-05-05 13:31 51.40270 -3.35849 976 ft 200 kts 302°
2026-05-05 13:31 51.40881 -3.37899 2562 ft 210 kts 294°
2026-05-05 13:31 51.41465 -3.40220 3341 ft 237 kts 295°
2026-05-05 13:31 51.42171 -3.42699 4564 ft 253 kts 297°
2026-05-05 13:32 51.42970 -3.45264 5752 ft 264 kts 299°
2026-05-05 13:32 51.44134 -3.47557 5977 ft 269 kts 323°
2026-05-05 13:32 51.45749 -3.48820 5967 ft 261 kts 345°
2026-05-05 13:32 51.47575 -3.48927 5973 ft 263 kts
2026-05-05 13:33 51.49276 -3.47854 5983 ft 264 kts 27°
2026-05-05 13:33 51.50859 -3.46391 6235 ft 262 kts 28°
2026-05-05 13:33 51.52452 -3.44898 6612 ft 268 kts 28°
2026-05-05 13:33 51.54067 -3.43410 6999 ft 267 kts 28°
2026-05-05 13:34 51.55682 -3.41926 7379 ft 268 kts 28°
2026-05-05 13:34 51.57304 -3.40432 7754 ft 270 kts 28°
2026-05-05 13:34 51.58945 -3.38916 8150 ft 272 kts 28°
2026-05-05 13:34 51.60591 -3.37396 8535 ft 274 kts 28°
2026-05-05 13:35 51.62250 -3.35864 8921 ft 276 kts 28°
2026-05-05 13:35 51.63914 -3.34323 9313 ft 276 kts 28°
2026-05-05 13:35 51.65584 -3.32776 9722 ft 279 kts 28°
2026-05-05 13:35 51.67271 -3.31211 10092 ft 281 kts 28°
2026-05-05 13:36 51.68943 -3.29555 10449 ft 282 kts 38°
2026-05-05 13:36 51.70149 -3.27032 10818 ft 289 kts 63°
2026-05-05 13:36 51.70631 -3.23881 11191 ft 295 kts 88°
2026-05-05 13:36 51.70254 -3.20626 11587 ft 301 kts 112°
2026-05-05 13:37 51.69225 -3.17720 11980 ft 300 kts 121°
2026-05-05 13:37 51.68085 -3.14835 12380 ft 304 kts 123°
2026-05-05 13:37 51.66945 -3.11986 12783 ft 303 kts 122°
2026-05-05 13:37 51.65817 -3.09116 12988 ft 309 kts 122°
2026-05-05 13:38 51.64675 -3.06191 12992 ft 307 kts 122°
2026-05-05 13:38 51.63528 -3.03272 12995 ft 307 kts 122°
2026-05-05 13:38 51.62400 -3.00414 12993 ft 306 kts 123°
2026-05-05 13:38 51.61261 -2.97527 12992 ft 305 kts 122°
2026-05-05 13:39 51.60123 -2.94641 12993 ft 306 kts 122°
2026-05-05 13:39 51.58984 -2.91760 12992 ft 305 kts 122°
2026-05-05 13:39 51.57886 -2.88852 12986 ft 305 kts 115°
2026-05-05 13:39 51.57289 -2.85606 12996 ft 303 kts 103°
2026-05-05 13:40 51.56736 -2.82344 12992 ft 305 kts 105°
2026-05-05 13:40 51.56162 -2.79047 12994 ft 304 kts 105°
2026-05-05 13:40 51.55612 -2.75781 12994 ft 304 kts 104°
2026-05-05 13:40 51.55063 -2.72483 12996 ft 304 kts 104°
2026-05-05 13:41 51.54512 -2.69212 13003 ft 304 kts 105°
2026-05-05 13:41 51.53956 -2.65941 12994 ft 302 kts 104°
2026-05-05 13:41 51.53502 -2.62654 13006 ft 300 kts 94°
2026-05-05 13:41 51.53322 -2.59324 13008 ft 300 kts 96°
2026-05-05 13:42 51.53077 -2.56014 13009 ft 300 kts 96°
2026-05-05 13:42 51.52841 -2.52677 13005 ft 300 kts 95°
2026-05-05 13:42 51.52625 -2.49342 13005 ft 300 kts 95°
2026-05-05 13:42 51.52408 -2.46012 13001 ft 300 kts 95°
2026-05-05 13:43 51.52098 -2.42708 12993 ft 300 kts 107°
2026-05-05 13:43 51.51185 -2.39699 13001 ft 301 kts 117°
2026-05-05 13:43 51.50202 -2.36741 12995 ft 300 kts 117°
2026-05-05 13:43 51.49214 -2.33795 12998 ft 300 kts 117°
2026-05-05 13:44 51.48225 -2.30853 12999 ft 300 kts 117°
2026-05-05 13:44 51.47237 -2.27913 12996 ft 300 kts 117°
2026-05-05 13:44 51.46249 -2.24970 12992 ft 300 kts 117°
2026-05-05 13:44 51.45246 -2.21994 12995 ft 310 kts 117°
2026-05-05 13:45 51.44169 -2.18793 12993 ft 344 kts 117°
2026-05-05 13:45 51.43006 -2.15352 12990 ft 353 kts 117°
2026-05-05 13:45 51.41833 -2.11886 12989 ft 356 kts 117°
2026-05-05 13:45 51.40654 -2.08403 12982 ft 356 kts 117°
2026-05-05 13:46 51.39473 -2.04917 12981 ft 356 kts 117°
2026-05-05 13:46 51.38315 -2.01504 12984 ft 356 kts 117°
2026-05-05 13:46 51.37383 -1.97775 12985 ft 355 kts 101°
2026-05-05 13:46 51.37039 -1.93873 12979 ft 354 kts 96°
2026-05-05 13:47 51.36771 -1.89959 12979 ft 354 kts 95°
2026-05-05 13:47 51.36518 -1.86109 12983 ft 354 kts 95°
2026-05-05 13:47 51.36232 -1.82178 12983 ft 354 kts 96°
2026-05-05 13:47 51.35938 -1.78284 12978 ft 353 kts 96°
2026-05-05 13:48 51.35651 -1.74374 12976 ft 354 kts 96°
2026-05-05 13:48 51.35365 -1.70452 12975 ft 354 kts 96°
2026-05-05 13:48 51.35078 -1.66548 12974 ft 354 kts 96°
2026-05-05 13:48 51.34787 -1.62643 12970 ft 354 kts 96°
2026-05-05 13:49 51.34495 -1.58739 12970 ft 354 kts 96°
2026-05-05 13:49 51.34198 -1.54770 12969 ft 351 kts 96°
2026-05-05 13:49 51.33915 -1.51008 12959 ft 342 kts 96°
2026-05-05 13:49 51.33631 -1.47251 12956 ft 341 kts 96°
2026-05-05 13:50 51.33349 -1.43532 12951 ft 339 kts 96°
2026-05-05 13:50 51.33059 -1.39747 12788 ft 340 kts 96°
2026-05-05 13:50 51.32774 -1.36006 12536 ft 337 kts 96°
2026-05-05 13:50 51.32487 -1.32294 12281 ft 335 kts 96°
2026-05-05 13:51 51.32203 -1.28610 12029 ft 333 kts 96°
2026-05-05 13:51 51.31920 -1.24952 11788 ft 332 kts 96°
2026-05-05 13:51 51.31636 -1.21288 11546 ft 332 kts 96°
2026-05-05 13:51 51.31353 -1.17637 11320 ft 330 kts 95°
2026-05-05 13:52 51.31310 -1.13990 11066 ft 327 kts 89°
2026-05-05 13:52 51.31268 -1.10396 10823 ft 318 kts 90°
2026-05-05 13:52 51.31212 -1.06939 10589 ft 302 kts 90°
2026-05-05 13:52 51.31182 -1.03672 10355 ft 286 kts 89°
2026-05-05 13:53 51.31162 -1.00545 10146 ft 279 kts 90°
2026-05-05 13:53 51.31135 -0.97458 9949 ft 277 kts 90°
2026-05-05 13:53 51.31103 -0.94387 9740 ft 276 kts 90°
2026-05-05 13:53 51.31071 -0.91325 9528 ft 275 kts 90°
2026-05-05 13:54 51.31040 -0.88282 9330 ft 274 kts 90°
2026-05-05 13:54 51.31008 -0.85247 9071 ft 274 kts 90°
2026-05-05 13:54 51.30975 -0.82223 8747 ft 271 kts 90°
2026-05-05 13:54 51.30942 -0.79230 8450 ft 269 kts 90°
2026-05-05 13:55 51.31166 -0.76312 8058 ft 264 kts 65°
2026-05-05 13:55 51.32346 -0.74204 7748 ft 253 kts 28°
2026-05-05 13:55 51.34006 -0.73711 7502 ft 243 kts 351°
2026-05-05 13:55 51.35499 -0.74793 7208 ft 230 kts 328°
2026-05-05 13:56 51.36758 -0.76206 6876 ft 213 kts 327°
2026-05-05 13:56 51.37980 -0.77386 6660 ft 198 kts 334°
2026-05-05 13:56 51.39223 -0.78123 6498 ft 184 kts 348°
2026-05-05 13:56 51.40456 -0.78421 6294 ft 175 kts 355°
2026-05-05 13:57 51.41649 -0.78628 6042 ft 171 kts 355°
2026-05-05 13:57 51.42817 -0.78858 5752 ft 169 kts 354°
2026-05-05 13:57 51.43982 -0.79100 5448 ft 168 kts 354°
2026-05-05 13:57 51.45137 -0.79307 5174 ft 165 kts 360°
2026-05-05 13:58 51.46224 -0.78855 4778 ft 161 kts 27°
2026-05-05 13:58 51.47077 -0.77745 4358 ft 159 kts 49°
2026-05-05 13:58 51.47569 -0.76167 3961 ft 160 kts 72°
2026-05-05 13:58 51.47646 -0.74391 3566 ft 160 kts 89°
2026-05-05 13:59 51.47645 -0.70877 2873 ft 153 kts 86°
2026-05-05 13:59 51.47654 -0.69236 2525 ft 135 kts 85°
2026-05-05 14:00 51.47681 -0.66444 2184 ft 119 kts 85°
2026-05-05 14:00 51.47685 -0.65573 2085 ft 119 kts 85°
2026-05-05 14:00 51.47687 -0.64222 1951 ft 118 kts 84°
2026-05-05 14:00 51.47696 -0.62877 1865 ft 128 kts 85°
2026-05-05 14:01 51.47699 -0.61507 1720 ft 122 kts 85°
2026-05-05 14:01 51.47703 -0.60117 1551 ft 123 kts 85°
2026-05-05 14:01 51.47716 -0.58750 1387 ft 123 kts 87°
2026-05-05 14:01 51.47714 -0.57374 1229 ft 124 kts 86°
2026-05-05 14:02 51.47724 -0.55988 1066 ft 123 kts 85°
2026-05-05 14:02 51.47724 -0.54634 869 ft 121 kts 85°
2026-05-05 14:02 51.47735 -0.53216 711 ft 132 kts 86°
2026-05-05 14:02 51.47733 -0.51757 526 ft 131 kts 89°
2026-05-05 14:03 51.47733 -0.50289 303 ft 132 kts 87°
2026-05-05 14:03 51.47741 -0.48797 167 ft 135 kts 86°
2026-05-05 14:03 51.47757 -0.47404 92 ft 105 kts 91°
2026-05-05 14:03 51.47756 -0.46646 102 ft 40 kts 89°
2026-05-05 14:04 51.47742 -0.46247 94 ft 35 kts 110°
2026-05-05 14:04 51.47606 -0.46063 95 ft 3 kts 180°
2026-05-05 14:04 51.47600 -0.46063 94 ft 0 kts 180°
2026-05-05 14:05 51.47529 -0.46123 93 ft 23 kts 233°
2026-05-05 14:05 51.47514 -0.46498 93 ft 45 kts 271°
2026-05-05 14:05 51.47489 -0.46964 93 ft 28 kts 270°
2026-05-05 14:05 51.47491 -0.47131 91 ft 15 kts 271°
2026-05-05 14:06 51.47493 -0.47314 91 ft 18 kts 271°
2026-05-05 14:06 51.47496 -0.47529 94 ft 20 kts 268°
2026-05-05 14:06 51.47490 -0.47769 92 ft 23 kts 268°
2026-05-05 14:06 51.47487 -0.48032 93 ft 25 kts 271°
2026-05-05 14:07 51.47485 -0.48271 93 ft 19 kts 263°
2026-05-05 14:07 51.47395 -0.48359 91 ft 17 kts 181°
2026-05-05 14:07 51.47267 -0.48359 93 ft 20 kts 180°
2026-05-05 14:07 51.47144 -0.48357 94 ft 17 kts 179°
2026-05-05 14:08 51.47021 -0.48355 94 ft 16 kts 181°
2026-05-05 14:08 51.46981 -0.48322 95 ft 1 kts 116°
2026-05-05 14:08 51.46981 -0.48317 94 ft 1 kts 104°
2026-05-05 14:08 51.46982 -0.48292 93 ft 3 kts 90°
2026-05-05 14:09 51.46982 -0.48260 93 ft 2 kts 90°
2026-05-05 14:09 51.46982 -0.48239 93 ft 1 kts 90°
2026-05-05 14:09 51.46982 -0.48236 93 ft 0 kts 90°